TimeCDT,TemperatureF,Dew PointF,Humidity,Sea Level PressureIn,VisibilityMPH,Wind Direction,Wind SpeedMPH,Gust SpeedMPH,PrecipitationIn,Events,Conditions,WindDirDegrees,DateUTC
12:53 AM,37.0,25.0,62,30.24,10.0,NW,5.8,-,N/A,,Overcast,320,2012-10-07 05:53:00
1:53 AM,37.4,24.8,60,30.21,10.0,NW,6.9,-,N/A,,Overcast,310,2012-10-07 06:53:00
2:53 AM,37.0,24.1,59,30.23,10.0,NW,9.2,-,N/A,,Overcast,310,2012-10-07 07:53:00
3:53 AM,36.0,24.1,62,30.22,10.0,NW,5.8,-,N/A,,Overcast,310,2012-10-07 08:53:00
4:53 AM,35.1,24.1,64,30.22,10.0,Calm,Calm,-,N/A,,Overcast,0,2012-10-07 09:53:00
5:53 AM,35.1,24.1,64,30.22,10.0,NW,4.6,-,N/A,,Overcast,320,2012-10-07 10:53:00
6:53 AM,35.1,25.0,67,30.22,10.0,Calm,Calm,-,N/A,,Overcast,0,2012-10-07 11:53:00
7:53 AM,36.0,26.1,67,30.22,10.0,Calm,Calm,-,N/A,,Overcast,0,2012-10-07 12:53:00
8:53 AM,37.9,25.0,60,30.24,10.0,WNW,5.8,-,N/A,,Overcast,290,2012-10-07 13:53:00
9:53 AM,42.1,21.0,43,30.25,10.0,WNW,5.8,-,N/A,,Partly Cloudy,290,2012-10-07 14:53:00
10:53 AM,43.0,19.0,38,30.23,10.0,West,4.6,-,N/A,,Scattered Clouds,280,2012-10-07 15:53:00
11:53 AM,46.4,19.4,34,30.20,10.0,West,10.4,-,N/A,,Partly Cloudy,260,2012-10-07 16:53:00
12:53 PM,46.0,18.0,33,30.20,10.0,SSW,6.9,-,N/A,,Clear,210,2012-10-07 17:53:00
1:53 PM,48.0,16.0,28,30.18,10.0,WNW,6.9,18.4,N/A,,Clear,290,2012-10-07 18:53:00
2:53 PM,50.0,15.1,25,30.15,10.0,WSW,10.4,19.6,N/A,,Clear,250,2012-10-07 19:53:00
3:53 PM,50.0,16.0,26,30.13,10.0,WSW,11.5,16.1,N/A,,Clear,250,2012-10-07 20:53:00
4:53 PM,48.0,16.0,28,30.12,10.0,ESE,11.5,24.2,N/A,,Clear,120,2012-10-07 21:53:00
5:53 PM,46.9,16.0,29,30.12,10.0,WSW,8.1,-,N/A,,Clear,250,2012-10-07 22:53:00
6:53 PM,42.1,17.1,37,30.12,10.0,SSW,3.5,-,N/A,,Clear,210,2012-10-07 23:53:00
7:53 PM,37.0,17.1,44,30.13,10.0,Calm,Calm,-,N/A,,Clear,0,2012-10-08 00:53:00
8:53 PM,35.1,18.0,50,30.13,10.0,South,4.6,-,N/A,,Clear,190,2012-10-08 01:53:00
9:53 PM,33.1,18.0,54,30.13,10.0,South,5.8,-,N/A,,Clear,180,2012-10-08 02:53:00
10:53 PM,32.0,18.0,56,30.12,10.0,SSW,5.8,-,N/A,,Clear,200,2012-10-08 03:53:00
11:53 PM,30.9,19.0,61,30.12,10.0,SSW,6.9,-,N/A,,Clear,200,2012-10-08 04:53:00